�������l�o���
Date,Time,MP-1(��Sv/h),MP-2(��Sv/h),MP-3(��Sv/h),MP-4(��Sv/h),MP-5(��Sv/h),MP-6(��Sv/h),MP-7(��Sv/h),MP-8(��Sv/h),����,����(m/s),���J
2021/09/17,00:00,0.591,0.882,0.558,1.070,0.758,0.360,0.626,0.585,��,1.7,��
2021/09/17,00:10,0.592,0.879,0.558,1.070,0.759,0.360,0.625,0.584,��,1.7,��
2021/09/17,00:20,0.592,0.882,0.559,1.071,0.758,0.359,0.626,0.584,��,1.7,��
2021/09/17,00:30,0.592,0.880,0.557,1.071,0.759,0.359,0.626,0.584,��,1.5,��
2021/09/17,00:40,0.593,0.878,0.560,1.069,0.760,0.360,0.625,0.585,��쐼,1.4,��
2021/09/17,00:50,0.594,0.880,0.558,1.070,0.762,0.361,0.626,0.586,�쐼,1.4,��
2021/09/17,01:00,0.593,0.880,0.560,1.071,0.763,0.360,0.624,0.584,�쐼,1.7,��
2021/09/17,01:10,0.592,0.880,0.557,1.072,0.761,0.361,0.624,0.585,�쐼,1.5,��
2021/09/17,01:20,0.592,0.882,0.559,1.070,0.760,0.358,0.624,0.586,��,1.1,��
2021/09/17,01:30,0.592,0.879,0.559,1.071,0.761,0.359,0.624,0.586,��쓌,0.9,��
2021/09/17,01:40,0.593,0.881,0.559,1.070,0.760,0.359,0.624,0.585,��쐼,2.0,��
2021/09/17,01:50,0.592,0.879,0.559,1.073,0.760,0.359,0.623,0.584,��,2.5,��
2021/09/17,02:00,0.593,0.880,0.558,1.069,0.762,0.359,0.623,0.586,��,2.0,��
2021/09/17,02:10,0.591,0.880,0.558,1.072,0.760,0.358,0.626,0.585,��,1.9,��
2021/09/17,02:20,0.594,0.882,0.558,1.072,0.761,0.359,0.626,0.583,�쐼,2.5,��
2021/09/17,02:30,0.594,0.879,0.558,1.070,0.761,0.360,0.623,0.585,�쐼,2.6,��
2021/09/17,02:40,0.592,0.880,0.558,1.070,0.759,0.359,0.625,0.585,��쐼,2.6,��
2021/09/17,02:50,0.591,0.882,0.558,1.070,0.760,0.358,0.624,0.586,��쐼,2.6,��
2021/09/17,03:00,0.591,0.880,0.556,1.070,0.760,0.360,0.624,0.584,��쐼,2.5,��
2021/09/17,03:10,0.593,0.881,0.558,1.073,0.760,0.359,0.625,0.584,��쐼,2.6,��
2021/09/17,03:20,0.593,0.880,0.559,1.070,0.761,0.359,0.626,0.585,��쐼,2.9,��
2021/09/17,03:30,0.592,0.878,0.559,1.072,0.762,0.360,0.624,0.584,��쐼,2.6,��
2021/09/17,03:40,0.592,0.880,0.558,1.072,0.759,0.360,0.625,0.585,��쐼,2.5,��
2021/09/17,03:50,0.591,0.880,0.557,1.073,0.760,0.359,0.625,0.584,��,2.0,��
2021/09/17,04:00,0.592,0.880,0.559,1.070,0.759,0.359,0.625,0.583,��쐼,1.7,��
2021/09/17,04:10,0.593,0.880,0.558,1.073,0.759,0.358,0.624,0.586,�쐼,2.5,��
2021/09/17,04:20,0.592,0.878,0.557,1.071,0.760,0.359,0.626,0.584,�쐼,2.9,��
2021/09/17,04:30,0.592,0.881,0.558,1.072,0.761,0.361,0.626,0.585,��쐼,2.8,��
2021/09/17,04:40,0.593,0.880,0.558,1.074,0.762,0.359,0.624,0.586,��쐼,3.1,��
2021/09/17,04:50,0.593,0.879,0.559,1.072,0.759,0.360,0.625,0.584,��쐼,2.9,��
2021/09/17,05:00,0.592,0.881,0.557,1.072,0.759,0.360,0.623,0.586,��쐼,2.9,��
2021/09/17,05:10,0.590,0.879,0.558,1.072,0.761,0.360,0.624,0.586,�쐼,2.8,��
2021/09/17,05:20,0.591,0.879,0.559,1.071,0.762,0.359,0.624,0.586,��쐼,3.0,��
2021/09/17,05:30,0.593,0.878,0.558,1.073,0.760,0.359,0.625,0.586,��쐼,3.4,��
2021/09/17,05:40,0.592,0.880,0.559,1.071,0.760,0.359,0.625,0.584,��쐼,3.6,��
2021/09/17,05:50,0.593,0.881,0.557,1.071,0.762,0.360,0.625,0.586,��쐼,3.6,��
2021/09/17,06:00,0.592,0.883,0.558,1.073,0.762,0.358,0.624,0.585,�쐼,3.6,��
2021/09/17,06:10,0.593,0.881,0.560,1.072,0.760,0.360,0.624,0.585,��쐼,2.0,��
2021/09/17,06:20,0.594,0.881,0.559,1.071,0.761,0.359,0.624,0.586,��,2.6,��
2021/09/17,06:30,0.594,0.880,0.560,1.073,0.760,0.359,0.627,0.585,��,2.6,��
2021/09/17,06:40,0.593,0.881,0.559,1.073,0.761,0.360,0.626,0.586,��,3.0,��
2021/09/17,06:50,0.592,0.880,0.561,1.073,0.761,0.358,0.626,0.587,��,3.5,��
2021/09/17,07:00,0.593,0.881,0.559,1.072,0.763,0.360,0.625,0.586,��쐼,3.8,��
2021/09/17,07:10,0.592,0.881,0.558,1.072,0.761,0.358,0.625,0.585,��쐼,4.0,��
2021/09/17,07:20,0.592,0.882,0.559,1.072,0.760,0.358,0.622,0.587,��쐼,3.6,��
2021/09/17,07:30,0.592,0.880,0.559,1.072,0.761,0.360,0.623,0.586,��쐼,3.8,��
2021/09/17,07:40,0.593,0.881,0.561,1.073,0.762,0.358,0.623,0.585,��쐼,4.9,�L
2021/09/17,07:50,0.593,0.881,0.560,1.073,0.760,0.359,0.623,0.586,��쐼,4.1,�L
2021/09/17,08:00,0.593,0.881,0.559,1.074,0.760,0.359,0.623,0.586,��,4.1,�L
2021/09/17,08:10,0.593,0.879,0.558,1.072,0.762,0.359,0.624,0.585,��,5.4,��
2021/09/17,08:20,0.590,0.879,0.559,1.072,0.761,0.359,0.625,0.585,��,5.3,��
2021/09/17,08:30,0.593,0.880,0.561,1.070,0.761,0.358,0.625,0.586,��쐼,3.6,��
2021/09/17,08:40,0.591,0.877,0.559,1.074,0.760,0.359,0.623,0.585,��쐼,3.7,��
2021/09/17,08:50,0.592,0.880,0.558,1.072,0.759,0.358,0.623,0.585,��,2.3,��
2021/09/17,09:00,0.592,0.878,0.558,1.071,0.761,0.357,0.625,0.586,�쓌,1.9,��
2021/09/17,09:10,0.592,0.878,0.557,1.073,0.759,0.359,0.623,0.584,�쓌,4.0,��
2021/09/17,09:20,0.591,0.876,0.557,1.072,0.759,0.358,0.624,0.585,��쓌,4.8,��
2021/09/17,09:30,0.591,0.878,0.557,1.069,0.758,0.357,0.623,0.583,��쓌,5.3,��
2021/09/17,09:40,0.592,0.877,0.556,1.073,0.759,0.358,0.624,0.584,��쓌,5.7,��
2021/09/17,09:50,0.592,0.877,0.556,1.071,0.759,0.358,0.623,0.583,��쓌,5.9,��
2021/09/17,10:00,0.591,0.880,0.557,1.072,0.760,0.358,0.623,0.585,��쓌,6.6,��
2021/09/17,10:10,0.593,0.879,0.556,1.073,0.761,0.359,0.623,0.584,��쓌,6.2,��
2021/09/17,10:20,0.593,0.878,0.556,1.072,0.760,0.358,0.625,0.584,��쓌,6.2,��
2021/09/17,10:30,0.592,0.879,0.555,1.072,0.760,0.358,0.625,0.583,��쓌,8.1,��
2021/09/17,10:40,0.591,0.880,0.557,1.073,0.759,0.359,0.624,0.584,��쓌,7.3,��
2021/09/17,10:50,0.592,0.877,0.558,1.074,0.758,0.359,0.625,0.584,��쓌,7.0,��
2021/09/17,11:00,0.591,0.878,0.557,1.075,0.760,0.360,0.623,0.584,��쓌,7.3,��
2021/09/17,11:10,0.593,0.881,0.561,1.072,0.760,0.360,0.625,0.584,��쓌,7.7,��
2021/09/17,11:20,0.594,0.882,0.558,1.074,0.761,0.359,0.623,0.582,��쓌,8.2,��
2021/09/17,11:30,0.593,0.881,0.557,1.071,0.762,0.360,0.623,0.585,��쓌,8.9,��
2021/09/17,11:40,0.594,0.882,0.559,1.072,0.760,0.360,0.623,0.584,��,7.4,��
2021/09/17,11:50,0.595,0.883,0.559,1.073,0.762,0.359,0.623,0.585,��쓌,8.3,��
2021/09/17,12:00,0.594,0.882,0.560,1.073,0.761,0.360,0.624,0.584,��,7.9,��
2021/09/17,12:10,0.595,0.883,0.559,1.073,0.762,0.361,0.625,0.584,��쓌,8.4,��
2021/09/17,12:20,0.594,0.886,0.559,1.072,0.764,0.359,0.625,0.583,��쓌,8.4,��
2021/09/17,12:30,0.594,0.884,0.560,1.072,0.762,0.362,0.624,0.584,��,8.5,��
2021/09/17,12:40,0.595,0.882,0.562,1.071,0.761,0.363,0.625,0.584,��쓌,8.4,��
2021/09/17,12:50,0.594,0.881,0.559,1.071,0.762,0.361,0.626,0.584,��쓌,9.0,��
2021/09/17,13:00,0.594,0.881,0.559,1.072,0.763,0.364,0.624,0.584,��쓌,8.8,��
2021/09/17,13:10,0.594,0.884,0.560,1.074,0.762,0.362,0.627,0.585,��쓌,9.6,��
2021/09/17,13:20,0.597,0.883,0.560,1.075,0.763,0.363,0.625,0.584,��쓌,8.7,��
2021/09/17,13:30,0.595,0.883,0.560,1.073,0.762,0.363,0.627,0.585,��쓌,8.7,��
2021/09/17,13:40,0.596,0.883,0.560,1.072,0.765,0.363,0.626,0.583,��쓌,8.5,��
2021/09/17,13:50,0.594,0.880,0.560,1.072,0.765,0.362,0.625,0.584,��,8.4,��
2021/09/17,14:00,0.596,0.884,0.561,1.074,0.764,0.362,0.627,0.586,��,9.5,��
2021/09/17,14:10,0.594,0.884,0.560,1.074,0.764,0.362,0.625,0.585,��,8.9,��
2021/09/17,14:20,0.596,0.885,0.559,1.072,0.763,0.362,0.627,0.584,��쓌,8.4,��
2021/09/17,14:30,0.594,0.885,0.561,1.075,0.762,0.362,0.626,0.583,��쓌,8.7,��
2021/09/17,14:40,0.595,0.884,0.561,1.077,0.764,0.364,0.627,0.585,��쓌,8.9,��
2021/09/17,14:50,0.596,0.883,0.559,1.076,0.763,0.362,0.626,0.585,��쓌,10.6,��
2021/09/17,15:00,0.597,0.886,0.560,1.079,0.764,0.362,0.627,0.584,��쓌,10.0,��
2021/09/17,15:10,0.598,0.884,0.560,1.078,0.764,0.363,0.626,0.583,��,9.5,��
2021/09/17,15:20,0.594,0.883,0.561,1.077,0.763,0.363,0.625,0.584,��,9.2,��
2021/09/17,15:30,0.594,0.883,0.561,1.076,0.763,0.363,0.628,0.585,��,7.7,��
2021/09/17,15:40,0.595,0.885,0.560,1.077,0.763,0.361,0.627,0.584,��,7.7,��
2021/09/17,15:50,0.595,0.885,0.561,1.078,0.765,0.363,0.627,0.584,��,6.4,��
2021/09/17,16:00,0.595,0.882,0.557,1.077,0.765,0.362,0.627,0.585,��,7.6,��
2021/09/17,16:10,0.597,0.884,0.562,1.078,0.764,0.362,0.626,0.583,��,9.0,��
2021/09/17,16:20,0.594,0.884,0.560,1.079,0.763,0.362,0.625,0.586,��,8.1,��
2021/09/17,16:30,0.595,0.886,0.559,1.079,0.763,0.363,0.626,0.585,��,8.8,��
2021/09/17,16:40,0.596,0.885,0.560,1.079,0.766,0.362,0.626,0.586,��,9.4,��
2021/09/17,16:50,0.594,0.886,0.560,1.078,0.764,0.363,0.625,0.585,��쓌,8.8,��
2021/09/17,17:00,0.594,0.883,0.561,1.077,0.764,0.361,0.625,0.585,��쓌,8.3,��
2021/09/17,17:10,0.594,0.887,0.561,1.080,0.765,0.361,0.626,0.584,��쓌,9.1,��
2021/09/17,17:20,0.594,0.887,0.562,1.078,0.764,0.362,0.626,0.585,��,7.7,��
2021/09/17,17:30,0.596,0.885,0.561,1.080,0.764,0.361,0.627,0.584,��,8.4,��
2021/09/17,17:40,0.595,0.887,0.563,1.081,0.764,0.361,0.626,0.585,��쓌,8.5,��
2021/09/17,17:50,0.595,0.887,0.560,1.079,0.763,0.361,0.627,0.585,��,8.4,��
2021/09/17,18:00,0.595,0.887,0.562,1.082,0.764,0.362,0.627,0.587,��,8.3,��
2021/09/17,18:10,0.594,0.888,0.563,1.079,0.766,0.361,0.628,0.585,��,8.1,��
2021/09/17,18:20,0.594,0.886,0.562,1.081,0.765,0.360,0.626,0.586,��,8.4,��
2021/09/17,18:30,0.595,0.886,0.564,1.079,0.765,0.361,0.626,0.585,��,9.3,��
2021/09/17,18:40,0.594,0.888,0.562,1.079,0.764,0.361,0.628,0.588,��,8.7,��
2021/09/17,18:50,0.594,0.887,0.561,1.079,0.764,0.360,0.626,0.586,��쓌,9.0,��
2021/09/17,19:00,0.594,0.889,0.561,1.081,0.764,0.361,0.626,0.586,��,8.4,��
2021/09/17,19:10,0.593,0.890,0.562,1.081,0.765,0.363,0.628,0.588,��쓌,9.2,��
2021/09/17,19:20,0.594,0.890,0.562,1.081,0.764,0.362,0.627,0.587,��,8.1,��
2021/09/17,19:30,0.592,0.889,0.561,1.082,0.764,0.362,0.627,0.588,��,8.1,��
2021/09/17,19:40,0.592,0.890,0.564,1.080,0.764,0.359,0.627,0.586,��,8.2,��
2021/09/17,19:50,0.595,0.888,0.561,1.078,0.766,0.362,0.627,0.587,��,7.6,��
2021/09/17,20:00,0.595,0.890,0.564,1.079,0.765,0.360,0.627,0.585,��,7.9,��
2021/09/17,20:10,0.594,0.888,0.562,1.079,0.763,0.362,0.626,0.588,��,8.2,��
2021/09/17,20:20,0.594,0.887,0.564,1.078,0.762,0.361,0.628,0.586,��,8.1,��
2021/09/17,20:30,0.595,0.890,0.563,1.079,0.765,0.362,0.626,0.587,��,7.6,��
2021/09/17,20:40,0.594,0.892,0.563,1.081,0.764,0.361,0.627,0.587,��,7.8,��
2021/09/17,20:50,0.593,0.889,0.562,1.080,0.765,0.362,0.628,0.587,��,7.8,��
2021/09/17,21:00,0.595,0.890,0.563,1.081,0.766,0.364,0.627,0.587,��,7.2,��
2021/09/17,21:10,0.593,0.891,0.564,1.079,0.764,0.361,0.628,0.587,��,7.4,��
2021/09/17,21:20,0.595,0.891,0.563,1.078,0.764,0.362,0.627,0.587,��,6.7,�L
2021/09/17,21:30,0.596,0.890,0.564,1.080,0.764,0.361,0.627,0.586,��,8.1,��
2021/09/17,21:40,0.595,0.890,0.564,1.080,0.767,0.360,0.628,0.586,��,8.4,�L
2021/09/17,21:50,0.594,0.890,0.562,1.082,0.765,0.362,0.628,0.587,��,7.6,�L
2021/09/17,22:00,0.595,0.889,0.565,1.081,0.766,0.361,0.628,0.586,��,8.1,�L
2021/09/17,22:10,0.595,0.890,0.563,1.081,0.764,0.360,0.628,0.586,��,7.4,�L
2021/09/17,22:20,0.595,0.893,0.564,1.080,0.767,0.360,0.627,0.587,��,8.0,�L
2021/09/17,22:30,0.596,0.890,0.563,1.081,0.763,0.361,0.628,0.586,��,7.3,�L
2021/09/17,22:40,0.596,0.889,0.563,1.080,0.765,0.361,0.628,0.587,��,9.7,�L
2021/09/17,22:50,0.594,0.889,0.563,1.080,0.766,0.362,0.628,0.586,��,9.0,�L
2021/09/17,23:00,0.596,0.889,0.566,1.081,0.765,0.362,0.628,0.587,��,10.8,�L
2021/09/17,23:10,0.597,0.892,0.564,1.081,0.764,0.361,0.629,0.586,��,11.0,�L
2021/09/17,23:20,0.595,0.890,0.564,1.081,0.766,0.362,0.627,0.585,��,9.1,��
2021/09/17,23:30,0.596,0.891,0.564,1.081,0.767,0.362,0.628,0.587,��,9.8,��
2021/09/17,23:40,0.596,0.891,0.564,1.080,0.767,0.362,0.629,0.587,��,9.9,��
2021/09/17,23:50,0.593,0.891,0.564,1.080,0.767,0.361,0.628,0.587,��,9.3,��
